• în România
  • Lista ţărilor
  • Pe 7 zile
  • Temperatura apei
  • Hartă satelitară
  • Meteo pe hartă
  • Widget-uri
  • user-avatar
    Intrare

    Meteo pe oră la Lupishki

    Astăzi, 20 Mai, Duminică

    Timp Temperatura Precipitaţii Vânt Presiune Umiditate
    00:00 +13°C° 0 mm 2 m/s 744 mmHg 96%
    01:00 +12°C° 0 mm 2 m/s 744 mmHg 96%
    02:00 +12°C° 0 mm 2 m/s 745 mmHg 97%
    03:00 +10°C° 0 mm 2 m/s 745 mmHg 97%
    04:00 +10°C° 0 mm 2 m/s 745 mmHg 96%
    05:00 +11°C° 0 mm 3 m/s 746 mmHg 96%
    06:00 +11°C° 0 mm 3 m/s 746 mmHg 95%
    07:00 +12°C° 0 mm 3 m/s 746 mmHg 93%
    08:00 +13°C° 0 mm 2 m/s 747 mmHg 91%
    09:00 +14°C° 0 mm 2 m/s 747 mmHg 87%
    10:00 +14°C° 0 mm 2 m/s 747 mmHg 85%
    11:00 +15°C° 0 mm 2 m/s 747 mmHg 84%
    12:00 +16°C° 0 mm 2 m/s 748 mmHg 82%
    13:00 +16°C° 0,1 mm 3 m/s 748 mmHg 81%
    14:00 +17°C° 0,1 mm 3 m/s 748 mmHg 79%
    15:00 +17°C° 0,1 mm 3 m/s 748 mmHg 78%
    16:00 +17°C° 0,2 mm 4 m/s 748 mmHg 79%
    17:00 +17°C° 0,2 mm 4 m/s 748 mmHg 80%
    18:00 +16°C° 0,2 mm 5 m/s 748 mmHg 81%
    19:00 +15°C° 0 mm 5 m/s 749 mmHg 82%
    20:00 +14°C° 0 mm 5 m/s 749 mmHg 83%
    21:00 +13°C° 0 mm 5 m/s 750 mmHg 84%
    22:00 +13°C° 0 mm 5 m/s 750 mmHg 83%
    23:00 +12°C° 0 mm 5 m/s 750 mmHg 82%

    Mâine, 21 Mai, Luni

    Timp Temperatura Precipitaţii Vânt Presiune Umiditate
    00:00 +12°C° 0 mm 5 m/s 750 mmHg 80%
    01:00 +12°C° 0,1 mm 5 m/s 751 mmHg 80%
    02:00 +10°C° 0,1 mm 5 m/s 751 mmHg 81%
    03:00 +10°C° 0,1 mm 5 m/s 751 mmHg 81%
    04:00 +9°C° 0,1 mm 5 m/s 751 mmHg 81%
    05:00 +9°C° 0,1 mm 5 m/s 752 mmHg 82%
    06:00 +9°C° 0,1 mm 6 m/s 752 mmHg 82%
    07:00 +9°C° 0,1 mm 6 m/s 752 mmHg 79%
    08:00 +10°C° 0,1 mm 7 m/s 753 mmHg 77%
    09:00 +11°C° 0,1 mm 7 m/s 753 mmHg 74%
    10:00 +11°C° 0,2 mm 7 m/s 753 mmHg 73%
    11:00 +12°C° 0,2 mm 7 m/s 753 mmHg 72%
    12:00 +12°C° 0,2 mm 7 m/s 753 mmHg 71%
    13:00 +14°C° 0 mm 7 m/s 753 mmHg 70%
    14:00 +14°C° 0 mm 7 m/s 753 mmHg 69%
    15:00 +15°C° 0 mm 7 m/s 753 mmHg 68%
    16:00 +15°C° 0 mm 6 m/s 753 mmHg 71%
    17:00 +14°C° 0 mm 5 m/s 753 mmHg 73%
    18:00 +14°C° 0 mm 4 m/s 753 mmHg 75%
    19:00 +14°C° 0 mm 5 m/s 753 mmHg 75%
    20:00 +14°C° 0 mm 5 m/s 753 mmHg 76%
    21:00 +14°C° 0 mm 5 m/s 754 mmHg 76%
    22:00 +13°C° 0,1 mm 5 m/s 754 mmHg 76%
    23:00 +13°C° 0,1 mm 6 m/s 754 mmHg 76%

    Poimâine, 22 Mai, Marţi

    Timp Temperatura Precipitaţii Vânt Presiune Umiditate
    00:00 +13°C° 0,1 mm 6 m/s 754 mmHg 76%
    01:00 +13°C° 0,1 mm 6 m/s 754 mmHg 77%
    02:00 +11°C° 0,1 mm 6 m/s 754 mmHg 78%
    03:00 +11°C° 0,1 mm 6 m/s 754 mmHg 79%
    04:00 +11°C° 0 mm 6 m/s 754 mmHg 80%
    05:00 +11°C° 0 mm 6 m/s 754 mmHg 81%
    06:00 +10°C° 0 mm 6 m/s 754 mmHg 82%
    07:00 +11°C° 0 mm 6 m/s 754 mmHg 82%
    08:00 +13°C° 0 mm 6 m/s 754 mmHg 81%
    09:00 +14°C° 0 mm 6 m/s 755 mmHg 80%
    10:00 +15°C° 0 mm 6 m/s 755 mmHg 79%
    11:00 +17°C° 0 mm 6 m/s 754 mmHg 77%
    12:00 +19°C° 0 mm 6 m/s 754 mmHg 76%
    13:00 +19°C° 0 mm 5 m/s 754 mmHg 76%
    14:00 +20°C° 0 mm 5 m/s 754 mmHg 76%
    15:00 +21°C° 0 mm 5 m/s 754 mmHg 76%
    16:00 +20°C° 0 mm 4 m/s 754 mmHg 79%
    17:00 +20°C° 0 mm 3 m/s 754 mmHg 82%
    18:00 +20°C° 0 mm 2 m/s 753 mmHg 85%
    19:00 +19°C° 0 mm 2 m/s 754 mmHg 87%
    20:00 +20°C° 0 mm 1 m/s 754 mmHg 89%
    21:00 +19°C° 0 mm 1 m/s 754 mmHg 91%
    22:00 +18°C° 0,4 mm 1 m/s 754 mmHg 92%
    23:00 +18°C° 0,4 mm 1 m/s 754 mmHg 93%

    23 Mai, Miercuri

    Timp Temperatura Precipitaţii Vânt Presiune Umiditate
    00:00 +16°C° 0,4 mm 2 m/s 754 mmHg 94%
    01:00 +16°C° 0,1 mm 2 m/s 754 mmHg 95%
    02:00 +16°C° 0,1 mm 2 m/s 754 mmHg 95%
    03:00 +15°C° 0,1 mm 2 m/s 753 mmHg 96%
    04:00 +16°C° 0,2 mm 1 m/s 753 mmHg 95%
    05:00 +16°C° 0,2 mm 1 m/s 753 mmHg 95%
    06:00 +16°C° 0,2 mm 1 m/s 753 mmHg 95%
    07:00 +18°C° 0,1 mm 2 m/s 753 mmHg 91%
    08:00 +19°C° 0,1 mm 2 m/s 753 mmHg 87%
    09:00 +20°C° 0,1 mm 2 m/s 753 mmHg 83%
    10:00 +22°C° 0,9 mm 3 m/s 753 mmHg 78%
    11:00 +24°C° 0,9 mm 3 m/s 753 mmHg 73%
    12:00 +25°C° 0,9 mm 3 m/s 753 mmHg 68%
    13:00 +25°C° 1 mm 3 m/s 752 mmHg 67%
    14:00 +25°C° 1 mm 3 m/s 752 mmHg 66%
    15:00 +25°C° 1 mm 3 m/s 752 mmHg 65%
    16:00 +25°C° 0,4 mm 3 m/s 751 mmHg 69%
    17:00 +25°C° 0,4 mm 2 m/s 751 mmHg 72%
    18:00 +24°C° 0,4 mm 2 m/s 751 mmHg 75%
    19:00 +23°C° 0 mm 2 m/s 751 mmHg 79%
    20:00 +21°C° 0 mm 1 m/s 751 mmHg 83%
    21:00 +20°C° 0 mm 1 m/s 751 mmHg 87%
    22:00 +19°C° 0,1 mm 1 m/s 750 mmHg 88%
    23:00 +19°C° 0,1 mm 1 m/s 750 mmHg 89%

    24 Mai, Joi

    Timp Temperatura Precipitaţii Vânt Presiune Umiditate
    00:00 +18°C° 0,1 mm 1 m/s 750 mmHg 90%
    01:00 +18°C° 0 mm 1 m/s 750 mmHg 90%
    02:00 +18°C° 0 mm 1 m/s 750 mmHg 91%
    03:00 +16°C° 0 mm 1 m/s 750 mmHg 91%
    04:00 +18°C° 0,1 mm 1 m/s 750 mmHg 91%
    05:00 +18°C° 0,1 mm 1 m/s 750 mmHg 90%
    06:00 +18°C° 0,1 mm 1 m/s 749 mmHg 89%
    07:00 +20°C° 0,2 mm 1 m/s 750 mmHg 85%
    08:00 +21°C° 0,2 mm 1 m/s 750 mmHg 80%
    09:00 +22°C° 0,2 mm 1 m/s 750 mmHg 76%
    10:00 +23°C° 0,1 mm 1 m/s 749 mmHg 71%
    11:00 +24°C° 0,1 mm 1 m/s 749 mmHg 67%
    12:00 +25°C° 0,1 mm 1 m/s 749 mmHg 63%
    13:00 +25°C° 0,4 mm 2 m/s 749 mmHg 62%
    14:00 +26°C° 0,4 mm 2 m/s 749 mmHg 61%
    15:00 +26°C° 0,4 mm 2 m/s 749 mmHg 60%
    16:00 +25°C° 0,2 mm 2 m/s 748 mmHg 63%
    17:00 +25°C° 0,2 mm 2 m/s 748 mmHg 67%
    18:00 +25°C° 0,2 mm 2 m/s 748 mmHg 70%
    19:00 +22°C° 0,4 mm 3 m/s 749 mmHg 76%
    20:00 +20°C° 0,4 mm 3 m/s 749 mmHg 82%
    21:00 +18°C° 0,4 mm 3 m/s 749 mmHg 87%
    22:00 +17°C° 0 mm 4 m/s 749 mmHg 89%
    23:00 +17°C° 0 mm 4 m/s 750 mmHg 91%

    25 Mai, Vineri

    Timp Temperatura Precipitaţii Vânt Presiune Umiditate
    00:00 +15°C° 0 mm 5 m/s 750 mmHg 93%
    01:00 +15°C° 0 mm 6 m/s 750 mmHg 93%
    02:00 +15°C° 0 mm 6 m/s 750 mmHg 93%
    03:00 +14°C° 0 mm 7 m/s 751 mmHg 92%
    04:00 +14°C° 0 mm 7 m/s 751 mmHg 92%
    05:00 +12°C° 0 mm 7 m/s 752 mmHg 91%
    06:00 +12°C° 0 mm 7 m/s 752 mmHg 90%
    07:00 +12°C° 0 mm 7 m/s 753 mmHg 89%
    08:00 +11°C° 0 mm 7 m/s 753 mmHg 88%
    09:00 +11°C° 0 mm 7 m/s 754 mmHg 87%
    10:00 +11°C° 0 mm 7 m/s 754 mmHg 84%
    11:00 +12°C° 0 mm 7 m/s 755 mmHg 82%
    12:00 +12°C° 0 mm 7 m/s 755 mmHg 79%
    13:00 +14°C° 0 mm 7 m/s 755 mmHg 76%
    14:00 +15°C° 0 mm 7 m/s 755 mmHg 72%
    15:00 +16°C° 0 mm 7 m/s 756 mmHg 68%
    16:00 +16°C° 0 mm 6 m/s 756 mmHg 68%
    17:00 +16°C° 0 mm 6 m/s 756 mmHg 67%
    18:00 +16°C° 0 mm 6 m/s 756 mmHg 67%
    19:00 +14°C° 0 mm 5 m/s 756 mmHg 68%
    20:00 +13°C° 0 mm 5 m/s 757 mmHg 70%
    21:00 +11°C° 0 mm 4 m/s 757 mmHg 71%
    22:00 +11°C° 0 mm 4 m/s 758 mmHg 71%
    23:00 +10°C° 0 mm 4 m/s 758 mmHg 72%
    Arată mai mult